User: anonymous   Login
Location: Asar Burnu
(36.5203°N, 30.5523°E)
Time: 19:22:26
(UTC+00:00)
Language:

Cosmos 1140 Rocket - Orbit

View from above orbital plane
View from above orbital plane
View from above satellite
View from above satellite

Ground track
Ground track

The orbit data is extracted from the following two-line orbital elements,

1 11574U 79089B   24277.17480431  .00001603  00000-0  49820-3 0  9997
2 11574  74.0709 337.8662 0016953 283.3140  76.6125 14.41749921360982
Epoch (UTC): 03 October 2024 04:11:43
Eccentricity: 0.0016953
inclination: 74.0709°
perigee height: 740 km
apogee height: 765 km
right ascension of ascending node: 337.8662°
argument of perigee: 283.3140°
revolutions per day: 14.41749921
mean anomaly at epoch: 76.6125°
orbit number at epoch: 36098

The dashed part of the orbit path shows where the satellite is in the earth's shadow,  

DLR